FW2087 Weather Reports


time (UTC)temp
C
wind
direction
speed
KPH
gust
KPH
rain 1hr
cm
rain 24hr
cm
rain mn
cm
humidity
%
barometer
mb
20260506044519 21 250 0.0 12.9 0.00 0.00 0.00 56 1010.9
20260506043100 21 209 0.0 8.0 0.00 0.00 0.00 56 1011.0
20260506041534 21 229 1.6 11.3 0.00 0.00 0.00 55 1010.7
20260506040044 21 338 0.0 6.4 0.00 0.00 0.00 55 1010.9
20260506034521 21 215 0.0 4.8 0.00 0.00 0.00 54 1010.7
20260506033011 21 158 0.0 11.3 0.00 0.00 0.00 53 1011.1
20260506031552 22 201 0.0 12.9 0.00 0.00 0.00 54 1011.4
20260506030007 21 266 3.2 14.5 0.00 0.00 0.00 54 1011.4
20260506024559 21 204 0.0 9.7 0.00 0.00 0.00 55 1011.3
20260506023041 21 8 0.0 6.4 0.00 0.00 0.00 56 1011.1
20260506021533 21 236 1.6 8.0 0.00 0.00 0.00 56 1011.0
20260506020010 21 243 1.6 6.4 0.00 0.00 0.00 55 1011.2
20260506014547 21 177 0.0 6.4 0.00 0.00 0.00 55 1011.0
20260506013024 21 203 1.6 8.0 0.00 0.00 0.00 54 1010.7
20260506011608 21 220 0.0 6.4 0.00 0.00 0.00 54 1010.6
20260506010057 21 202 0.0 6.4 0.00 0.00 0.00 53 1010.3
20260506004553 21 140 0.0 4.8 0.00 0.00 0.00 53 1010.6
20260506003041 22 216 0.0 3.2 0.00 0.00 0.00 52 1010.8
20260506001503 22 210 1.6 8.0 0.00 0.00 0.00 50 1010.7
20260506000052 22 245 0.0 6.4 0.00 0.00 0.00 49 1011.0
20260505234541 22 134 1.6 8.0 0.00 0.00 0.00 48 1010.8
20260505233038 23 193 0.0 9.7 0.00 0.00 0.00 47 1010.6
20260505231535 23 205 0.0 6.4 0.00 0.00 0.00 49 1010.5
20260505230009 23 304 0.0 6.4 0.00 0.00 0.00 48 1010.5
20260505224557 23 217 1.6 14.5 0.00 0.00 0.00 49 1010.4
20260505223036 24 203 1.6 8.0 0.00 0.00 0.00 49 1010.5
20260505221517 24 250 1.6 8.0 0.00 0.00 0.00 51 1010.4
20260505220020 24 233 1.6 11.3 0.00 0.00 0.00 54 1010.7
20260505214611 24 348 0.0 14.5 0.00 0.00 0.00 53 1010.5
20260505213041 24 93 3.2 11.3 0.00 0.00 0.00 52 1010.7
20260505211609 25 287 1.6 11.3 0.00 0.00 0.00 51 1010.8
20260505210046 25 210 4.8 17.7 0.00 0.00 0.00 50 1011.0
20260505204547 25 204 4.8 16.1 0.00 0.00 0.00 48 1011.1
20260505203010 26 160 3.2 11.3 0.00 0.00 0.00 47 1011.4
20260505201511 26 181 3.2 16.1 0.00 0.00 0.00 45 1011.5
20260505200056 25 211 3.2 9.7 0.00 0.00 0.00 47 1011.6
20260505194512 25 176 1.6 11.3 0.00 0.00 0.00 48 1011.9
20260505193100 24 219 4.8 12.9 0.00 0.00 0.00 47 1012.2
20260505191547 24 247 1.6 6.4 0.00 0.00 0.00 47 1012.5
20260505190012 24 191 3.2 11.3 0.00 0.00 0.00 47 1012.6
20260505184548 24 257 1.6 11.3 0.00 0.00 0.00 48 1012.9
20260505183049 23 117 3.2 19.3 0.00 0.00 0.00 48 1013.3
20260505181504 23 200 3.2 16.1 0.00 0.00 0.00 48 1013.6
20260505180056 23 203 6.4 19.3 0.00 0.00 0.00 47 1013.7
20260505174539 23 219 1.6 17.7 0.00 0.00 0.00 53 1013.9
20260505173058 23 283 8.0 20.9 0.00 0.00 0.00 52 1014.3
20260505171545 23 171 4.8 17.7 0.00 0.00 0.00 53 1014.5
20260505170026 23 219 3.2 19.3 0.00 0.00 0.00 54 1014.8
20260505164604 23 75 4.8 16.1 0.00 0.00 0.00 55 1015.0
20260505163037 23 242 1.6 14.5 0.00 0.00 0.00 55 1014.9
20260505161532 23 319 1.6 9.7 0.00 0.00 0.00 58 1015.1
20260505160104 23 210 3.2 9.7 0.00 0.00 0.00 57 1015.0
20260505153036 22 234 1.6 9.7 0.00 0.00 0.00 61 1014.9
20260505151610 21 212 0.0 11.3 0.00 0.00 0.00 63 1015.0
20260505124547 13 172 0.0 0.0 0.00 0.00 0.00 88 1014.9
20260505123037 12 161 0.0 0.0 0.00 0.00 0.00 90 1014.9
20260505121511 11 160 0.0 0.0 0.00 0.00 0.00 90 1015.0
20260505120055 11 160 0.0 0.0 0.00 0.00 0.00 90 1014.8
20260505114551 10 161 0.0 0.0 0.00 0.00 0.00 91 1014.6
20260505113025 9 160 0.0 0.0 0.00 0.00 0.00 90 1014.4
20260505111608 9 160 0.0 0.0 0.00 0.00 0.00 90 1014.1
20260505101511 10 162 0.0 0.0 0.00 0.00 0.00 86 1013.8
20260505100054 10 162 0.0 0.0 0.00 0.00 0.00 85 1013.9
20260505094541 11 162 0.0 0.0 0.00 0.00 0.00 86 1013.5
20260505093038 11 162 0.0 0.0 0.00 0.00 0.00 83 1013.7
20260505091520 12 162 0.0 0.0 0.00 0.00 0.00 82 1013.7
20260505090012 12 162 0.0 0.0 0.00 0.00 0.00 81 1013.6
20260505084549 12 124 0.0 0.0 0.00 0.00 0.00 80 1013.5
20260505083026 12 124 0.0 0.0 0.00 0.00 0.00 80 1013.5
20260505081555 13 124 0.0 0.0 0.00 0.00 0.00 77 1013.5
20260505080025 13 124 0.0 1.6 0.00 0.00 0.00 76 1013.4
20260505074529 13 182 0.0 0.0 0.00 0.00 0.00 77 1013.4
20260505073004 13 185 0.0 0.0 0.00 0.00 0.00 76 1013.5
20260505071549 13 181 0.0 0.0 0.00 0.00 0.00 76 1013.5
20260505070105 13 181 0.0 0.0 0.00 0.00 0.00 77 1013.6
20260505064557 13 181 0.0 0.0 0.00 0.00 0.00 78 1013.7
20260505063050 13 179 0.0 0.0 0.00 0.00 0.00 79 1013.6
20260505061536 13 179 0.0 0.0 0.00 0.00 0.00 79 1013.7
20260505060024 13 179 0.0 0.0 0.00 0.00 0.00 77 1013.6
20260505054557 15 179 0.0 0.0 0.00 0.00 0.00 75 1013.6
20260505053039 16 164 0.0 0.0 0.00 0.00 0.00 72 1013.5
20260505051517 16 345 0.0 1.6 0.00 0.00 0.00 72 1013.5
20260505050103 16 330 0.0 1.6 0.00 0.00 0.00 72 1013.3